DHABISAT (MYSAT-2) (49016 NORAD) Tracking and Keplerian Element Data

This shows tracking and keplerian element data for the satellite.

Feedback or suggestion? Click here.




ElementValue
Catalog49016
NameDHABISAT (MYSAT-2)
Epoch Orbit1344
Epoch Day268.5932327
Epoch Year2021
RAAN222.8214
Inclination51.6232
Eccentricity0.0008421
Argument of Perigee177.3926
Mean Anonmoly182.7096
Mean Motion15.23108343
Decay Rate3.206E-05
L11 49016U 21013F 21268.59323270 .00003206 00000-0 14797-3 0 9999
L22 49016 51.6232 222.8214 0008421 177.3926 182.7096 15.23108343 13447

Live tracking and technical data element details for DHABISAT (MYSAT-2) (NORAD 49016). DHABISAT (MYSAT-2) can be tracked NOW for your location showing map with azimuth and elevation plus other details from your city location.

Track the satellite on the map from your city or location and see movement details for azimuth, elevation, latitude, longitude, range, height, and movement on the map or in text.







IsCatalogInMostPopularTable: catalog: 49016, numindb: 17
Update: records affected: 1



GetName: 49016 DHABISAT (MYSAT-2)

Hit Count: updated at: Sun, 26 Sep 2021 16:06:01 GMT